DW9280 Weather Reports


time (UTC)temp
C
wind
direction
speed
KPH
gust
KPH
rain 1hr
cm
rain 24hr
cm
rain mn
cm
humidity
%
barometer
mb
20260506091905 12 23 8.0 22.5 0.00 0.00 0.00 77 1009.1
20260506091405 12 26 9.7 22.5 0.00 0.00 0.00 77 1009.0
20260506091004 12 346 9.7 20.9 0.00 0.00 0.00 78 1009.0
20260506090938 12 49 9.7 22.5 0.00 0.00 0.00 77 1009.0
20260506090613 12 346 9.7 20.9 0.00 0.00 0.00 78 1009.0
20260506085906 12 331 9.7 20.9 0.00 0.00 0.00 78 1009.0
20260506085402 12 90 9.7 19.3 0.00 0.00 0.00 77 1009.0
20260506084909 12 346 8.0 19.3 0.00 0.00 0.00 76 1009.0
20260506084402 12 5 8.0 19.3 0.00 0.00 0.00 75 1009.0
20260506083903 12 13 8.0 17.7 0.00 0.00 0.00 75 1009.0
20260506083403 12 38 8.0 19.3 0.00 0.00 0.00 75 1008.9
20260506083023 12 33 9.7 24.1 0.00 0.00 0.00 74 1008.9
20260506082952 12 38 9.7 20.9 0.00 0.00 0.00 74 1008.9
20260506082613 12 33 9.7 24.1 0.00 0.00 0.00 74 1008.9
20260506081903 12 340 9.7 24.1 0.00 0.00 0.00 73 1008.9
20260506081657 12 0 9.7 22.5 0.00 0.00 0.00 73 1008.9
20260506081610 12 0 9.7 22.5 0.00 0.00 0.00 73 1008.9
20260506081200 12 5 9.7 22.5 0.00 0.00 0.00 74 1008.9
20260506081112 12 5 9.7 22.5 0.00 0.00 0.00 74 1008.9
20260506080408 12 355 9.7 19.3 0.00 0.00 0.00 74 1008.9
20260506080401 12 26 9.7 19.3 0.00 0.00 0.00 74 1008.9
20260506073404 12 61 9.7 27.4 0.00 0.00 0.00 71 1008.8
20260506073355 12 63 9.7 27.4 0.00 0.00 0.00 71 1008.8
20260506072904 12 58 9.7 27.4 0.00 0.00 0.00 71 1008.8
20260506072854 12 48 9.7 27.4 0.00 0.00 0.00 71 1008.8
20260506072650 12 39 9.7 25.7 0.00 0.00 0.00 71 1008.7
20260506072605 12 69 9.7 25.7 0.00 0.00 0.00 71 1008.7
20260506072149 12 51 6.4 19.3 0.00 0.00 0.00 72 1008.7
20260506072104 12 51 6.4 19.3 0.00 0.00 0.00 72 1008.7
20260506071403 12 21 3.2 12.9 0.00 0.00 0.00 74 1008.7
20260506071351 12 42 3.2 12.9 0.00 0.00 0.00 74 1008.7
20260506070904 12 46 4.8 16.1 0.00 0.00 0.00 74 1008.7
20260506070846 12 44 4.8 16.1 0.00 0.00 0.00 75 1008.7
20260506070640 11 51 6.4 16.1 0.00 0.00 0.00 75 1008.6
20260506070557 11 51 4.8 16.1 0.00 0.00 0.00 75 1008.6
20260506062403 11 29 6.4 20.9 0.00 0.00 0.00 84 1008.5
20260506062332 11 34 6.4 20.9 0.00 0.00 0.00 84 1008.5
20260506061904 11 10 6.4 19.3 0.00 0.00 0.00 85 1008.5
20260506061834 11 355 6.4 19.3 0.00 0.00 0.00 85 1008.4
20260506061405 11 20 6.4 19.3 0.00 0.00 0.00 84 1008.4
20260506061332 11 350 6.4 19.3 0.00 0.00 0.00 84 1008.4
20260506060904 11 13 6.4 17.7 0.00 0.00 0.00 84 1008.3
20260506060831 11 28 6.4 17.7 0.00 0.00 0.00 84 1008.4
20260506060632 11 10 6.4 17.7 0.00 0.00 0.00 84 1008.3
20260506060551 11 17 6.4 17.7 0.00 0.00 0.00 84 1008.3
20260506051403 10 24 6.4 17.7 0.00 0.00 0.00 86 1008.3
20260506051331 10 17 6.4 17.7 0.00 0.00 0.00 86 1008.3
20260506050903 10 48 6.4 17.7 0.00 0.00 0.00 86 1008.3
20260506050829 10 341 6.4 17.7 0.00 0.00 0.00 86 1008.3
20260506050402 10 349 4.8 12.9 0.00 0.00 0.00 86 1008.3
20260506050332 10 15 4.8 12.9 0.00 0.00 0.00 86 1008.3
20260506044902 10 338 6.4 16.1 0.00 0.00 0.00 86 1008.4
20260506044826 10 349 6.4 16.1 0.00 0.00 0.00 86 1008.4
20260506044402 10 0 6.4 16.1 0.00 0.00 0.00 86 1008.3
20260506044322 10 355 6.4 16.1 0.00 0.00 0.00 86 1008.3
20260506043855 10 26 4.8 14.5 0.00 0.00 0.00 86 1008.4
20260506043823 10 347 4.8 14.5 0.00 0.00 0.00 86 1008.4
20260506043605 10 355 4.8 17.7 0.00 0.00 0.00 86 1008.4
20260506043527 10 23 4.8 17.7 0.00 0.00 0.00 86 1008.4
20260506043107 10 355 6.4 20.9 0.00 0.00 0.00 86 1008.4
20260506043028 10 355 6.4 20.9 0.00 0.00 0.00 86 1008.5
20260506042348 10 355 6.4 20.9 0.00 0.00 0.00 86 1008.5
20260506042306 10 10 6.4 20.9 0.00 0.00 0.00 86 1008.5
20260506041846 10 11 4.8 14.5 0.00 0.00 0.00 86 1008.4
20260506041806 10 32 4.8 14.5 0.00 0.00 0.00 86 1008.4
20260506041604 10 5 3.2 14.5 0.00 0.00 0.00 85 1008.5
20260506041524 10 355 3.2 14.5 0.00 0.00 0.00 85 1008.5
20260506040847 10 5 4.8 14.5 0.00 0.00 0.00 85 1008.4
20260506040805 10 348 4.8 14.5 0.00 0.00 0.00 85 1008.4
20260506040348 10 5 4.8 14.5 0.00 0.00 0.00 85 1008.5
20260506040307 10 24 4.8 14.5 0.00 0.00 0.00 85 1008.5
20260506035847 10 39 4.8 14.5 0.00 0.00 0.00 85 1008.5
20260506035804 10 19 4.8 16.1 0.00 0.00 0.00 85 1008.5
20260506035615 10 19 6.4 16.1 0.00 0.00 0.00 85 1008.5
20260506035522 10 38 6.4 16.1 0.00 0.00 0.00 85 1008.5
20260506034844 10 350 4.8 16.1 0.00 0.00 0.00 85 1008.5
20260506034804 10 34 4.8 16.1 0.00 0.00 0.00 85 1008.5
20260506034342 10 23 4.8 16.1 0.00 0.00 0.00 85 1008.5
20260506034303 10 355 4.8 16.1 0.00 0.00 0.00 85 1008.5
20260506033840 10 42 6.4 16.1 0.00 0.00 0.00 85 1008.6
20260506033802 10 48 6.4 16.1 0.00 0.00 0.00 85 1008.6
20260506033340 10 28 6.4 16.1 0.00 0.00 0.00 85 1008.6
20260506033305 10 19 6.4 16.1 0.00 0.00 0.00 85 1008.6
20260506032838 10 44 6.4 16.1 0.00 0.00 0.00 85 1008.6
20260506032801 10 5 6.4 16.1 0.00 0.00 0.00 85 1008.6
20260506032336 10 13 6.4 14.5 0.00 0.00 0.00 85 1008.7
20260506032306 10 18 6.4 14.5 0.00 0.00 0.00 85 1008.7
20260506031832 10 40 6.4 14.5 0.00 0.00 0.00 85 1008.6
20260506031805 10 336 6.4 14.5 0.00 0.00 0.00 85 1008.6
20260506031603 10 24 4.8 14.5 0.00 0.00 0.00 85 1008.7
20260506031523 10 14 4.8 14.5 0.00 0.00 0.00 85 1008.7
20260506030832 10 26 4.8 14.5 0.00 0.00 0.00 84 1008.7
20260506030805 10 32 4.8 14.5 0.00 0.00 0.00 84 1008.7
20260506030331 10 16 6.4 19.3 0.00 0.00 0.00 84 1008.8
20260506030303 10 22 6.4 19.3 0.00 0.00 0.00 84 1008.8
20260506025830 10 5 6.4 19.3 0.00 0.00 0.00 84 1008.9
20260506025803 10 336 6.4 19.3 0.00 0.00 0.00 84 1008.9
20260506025328 10 25 6.4 14.5 0.00 0.00 0.00 84 1008.9
20260506025305 10 16 6.4 14.5 0.00 0.00 0.00 84 1008.9
20260506024829 10 23 6.4 14.5 0.00 0.00 0.00 84 1008.9
20260506024803 10 31 6.4 14.5 0.00 0.00 0.00 84 1008.9
20260506024320 10 17 6.4 19.3 0.00 0.00 0.00 83 1009.0
20260506024304 10 0 6.4 19.3 0.00 0.00 0.00 83 1009.0
20260506023819 10 27 6.4 19.3 0.00 0.00 0.00 83 1009.0
20260506023804 10 18 6.4 19.3 0.00 0.00 0.00 83 1009.0
20260506023318 10 13 4.8 14.5 0.00 0.00 0.00 82 1009.0
20260506023303 10 11 4.8 14.5 0.00 0.00 0.00 82 1009.0
20260506022817 10 19 4.8 16.1 0.00 0.00 0.00 82 1009.0
20260506022802 10 17 4.8 16.1 0.00 0.00 0.00 82 1009.0
20260506022318 10 5 6.4 17.7 0.00 0.00 0.00 82 1009.0
20260506022305 10 34 6.4 17.7 0.00 0.00 0.00 82 1009.0
20260506022103 10 5 4.8 17.7 0.00 0.00 0.00 82 1009.0
20260506022014 10 10 4.8 17.7 0.00 0.00 0.00 82 1009.0
20260506021301 10 19 6.4 14.5 0.00 0.00 0.00 82 1009.0
20260506020810 10 27 6.4 17.7 0.00 0.00 0.00 82 1009.0
20260506020804 10 23 6.4 17.7 0.00 0.00 0.00 82 1009.0
20260506020308 10 39 4.8 17.7 0.00 0.00 0.00 82 1009.0
20260506020303 10 22 4.8 17.7 0.00 0.00 0.00 82 1009.0
20260506015807 10 39 4.8 16.1 0.00 0.00 0.00 82 1009.0
20260506015803 10 37 4.8 16.1 0.00 0.00 0.00 82 1009.0
20260506015305 10 49 6.4 14.5 0.00 0.00 0.00 82 1009.1
20260506014809 10 52 6.4 14.5 0.00 0.00 0.00 82 1009.1
20260506014803 10 41 6.4 14.5 0.00 0.00 0.00 82 1009.1
20260506014307 10 59 6.4 14.5 0.00 0.00 0.00 82 1009.1
20260506014303 10 63 6.4 14.5 0.00 0.00 0.00 82 1009.1
20260506013804 10 31 6.4 19.3 0.00 0.00 0.00 81 1009.1
20260506013302 10 9 8.0 19.3 0.00 0.00 0.00 81 1009.1
20260506012804 10 342 8.0 19.3 0.00 0.00 0.00 81 1009.1
20260506012307 10 39 6.4 17.7 0.00 0.00 0.00 81 1009.2
20260506011803 10 15 8.0 19.3 0.00 0.00 0.00 80 1009.2
20260506011305 10 22 9.7 19.3 0.00 0.00 0.00 80 1009.3
20260506011106 10 338 8.0 19.3 0.00 0.00 0.00 80 1009.3
20260506011013 10 338 8.0 19.3 0.00 0.00 0.00 80 1009.3
20260506010604 10 339 8.0 19.3 0.00 0.00 0.00 80 1009.3
20260506010515 10 339 8.0 19.3 0.00 0.00 0.00 80 1009.3
20260506005804 10 35 9.7 20.9 0.00 0.00 0.00 80 1009.4
20260506005305 10 342 9.7 20.9 0.00 0.00 0.00 80 1009.5
20260506005106 10 22 9.7 22.5 0.00 0.00 0.00 80 1009.4
20260506005012 10 22 9.7 22.5 0.00 0.00 0.00 80 1009.4
20260506004303 10 44 8.0 22.5 0.00 0.00 0.00 80 1009.5
20260506003804 10 44 6.4 17.7 0.00 0.00 0.00 81 1009.6
20260506003303 10 54 6.4 17.7 0.00 0.00 0.00 81 1009.6
20260506002803 10 355 4.8 17.7 0.00 0.00 0.00 81 1009.7
20260506002305 10 13 8.0 20.9 0.00 0.00 0.00 81 1009.7
20260506001801 10 51 8.0 20.9 0.00 0.00 0.00 81 1009.6
20260506001302 10 11 4.8 16.1 0.00 0.00 0.00 82 1009.7
20260506000803 10 38 4.8 16.1 0.00 0.00 0.00 82 1009.7
20260506000303 10 11 4.8 17.7 0.00 0.00 0.00 82 1009.7
20260506000058 10 32 6.4 17.7 0.00 0.00 0.00 82 1009.7
20260506000012 10 32 6.4 17.7 0.00 0.00 0.00 82 1009.7
20260505235304 10 19 6.4 14.5 0.00 0.00 0.00 82 1009.8
20260505234804 10 16 6.4 14.5 0.00 0.00 0.00 81 1009.8
20260505234303 10 30 6.4 17.7 0.00 0.00 0.00 81 1009.9
20260505233803 10 22 6.4 17.7 0.00 0.00 0.00 82 1010.0
20260505233303 10 0 4.8 14.5 0.00 0.00 0.00 82 1010.1
20260505232803 10 56 6.4 14.5 0.00 0.00 0.00 82 1010.1
20260505232305 10 9 6.4 14.5 0.00 0.00 0.00 82 1010.1
20260505231802 10 17 6.4 17.7 0.00 0.00 0.00 82 1010.1
20260505231303 10 28 6.4 17.7 0.00 0.00 0.00 82 1010.2
20260505230803 10 19 6.4 12.9 0.00 0.00 0.00 83 1010.2
20260505230304 10 28 6.4 19.3 0.00 0.00 0.00 83 1010.2
20260505225803 10 42 6.4 19.3 0.00 0.00 0.00 83 1010.2
20260505225305 10 36 6.4 16.1 0.00 0.00 0.00 83 1010.2
20260505224801 10 11 6.4 17.7 0.00 0.00 0.00 83 1010.3
20260505224304 10 34 6.4 17.7 0.00 0.00 0.00 83 1010.3
20260505223804 10 340 4.8 14.5 0.00 0.00 0.00 83 1010.3
20260505223304 10 40 6.4 14.5 0.00 0.00 0.00 83 1010.4
20260505222803 10 11 4.8 14.5 0.00 0.00 0.00 83 1010.4
20260505222305 10 27 6.4 20.9 0.00 0.00 0.00 83 1010.5
20260505221805 10 355 8.0 20.9 0.00 0.00 0.00 83 1010.5
20260505221302 10 30 6.4 22.5 0.00 0.00 0.00 83 1010.5
20260505220802 10 35 8.0 22.5 0.00 0.00 0.00 83 1010.6
20260505220302 10 355 8.0 17.7 0.00 0.00 0.00 83 1010.5
20260505215802 10 5 6.4 20.9 0.00 0.00 0.00 84 1010.6
20260505215304 10 23 4.8 20.9 0.00 0.00 0.00 84 1010.6
20260505214804 10 19 4.8 14.5 0.00 0.00 0.00 84 1010.6
20260505214304 10 34 3.2 14.5 0.00 0.00 0.00 83 1010.7
20260505213803 10 26 3.2 11.3 0.00 0.00 0.00 83 1010.7
20260505213302 10 35 3.2 11.3 0.00 0.00 0.00 82 1010.7
20260505212803 10 38 4.8 12.9 0.00 0.00 0.00 82 1010.7
20260505212301 10 28 6.4 14.5 0.00 0.00 0.00 81 1010.7
20260505211803 10 26 6.4 16.1 0.00 0.00 0.00 80 1010.7
20260505211302 10 47 6.4 17.7 0.00 0.00 0.00 80 1010.6
20260505210805 10 355 6.4 17.7 0.00 0.00 0.00 79 1010.6
20260505210302 10 32 8.0 16.1 0.00 0.00 0.00 79 1010.6
20260505205803 10 25 8.0 16.1 0.00 0.00 0.00 78 1010.7
20260505205304 10 24 8.0 19.3 0.00 0.00 0.00 77 1010.8
20260505204802 10 42 8.0 19.3 0.00 0.00 0.00 77 1010.9
20260505204303 10 41 6.4 17.7 0.00 0.00 0.00 76 1010.9
20260505203805 10 45 6.4 17.7 0.00 0.00 0.00 75 1010.9
20260505203302 10 42 8.0 17.7 0.00 0.00 0.00 75 1010.9
20260505202802 10 346 8.0 17.7 0.00 0.00 0.00 74 1010.9
20260505202306 10 18 8.0 22.5 0.00 0.00 0.00 74 1010.9
20260505201804 10 23 6.4 22.5 0.00 0.00 0.00 75 1010.9
20260505201604 10 11 8.0 17.7 0.00 0.00 0.00 74 1010.8
20260505201513 10 11 8.0 17.7 0.00 0.00 0.00 74 1010.8
20260505200802 10 30 8.0 20.9 0.00 0.00 0.00 74 1010.8
20260505200303 10 18 6.4 20.9 0.00 0.00 0.00 74 1010.8
20260505195803 10 29 6.4 20.9 0.00 0.00 0.00 74 1010.8
20260505195558 10 0 6.4 20.9 0.00 0.00 0.00 75 1010.8
20260505195510 10 0 6.4 20.9 0.00 0.00 0.00 75 1010.8
20260505194801 11 57 8.0 20.9 0.00 0.00 0.00 75 1010.6
20260505194304 11 24 6.4 19.3 0.00 0.00 0.00 75 1010.6
20260505193802 11 40 8.0 19.3 0.00 0.00 0.00 75 1010.6
20260505193301 11 39 8.0 17.7 0.00 0.00 0.00 75 1010.5
20260505192804 11 28 8.0 20.9 0.00 0.00 0.00 75 1010.5
20260505192305 11 26 8.0 22.5 0.00 0.00 0.00 75 1010.4
20260505191802 11 337 6.4 22.5 0.00 0.00 0.00 75 1010.3
20260505191303 11 28 6.4 20.9 0.00 0.00 0.00 75 1010.3
20260505190806 11 332 8.0 20.9 0.00 0.00 0.00 75 1010.2
20260505190559 11 26 8.0 20.9 0.00 0.00 0.00 75 1010.2
20260505190511 11 26 8.0 20.9 0.00 0.00 0.00 75 1010.2
20260505185802 11 15 9.7 25.7 0.00 0.00 0.00 75 1010.2
20260505185305 11 32 8.0 25.7 0.00 0.00 0.00 76 1010.1
20260505184802 11 319 6.4 19.3 0.00 0.00 0.00 76 1010.2
20260505184302 11 344 8.0 19.3 0.00 0.00 0.00 76 1010.2
20260505183802 11 17 9.7 20.9 0.00 0.00 0.00 76 1010.1
20260505183302 11 9 9.7 22.5 0.00 0.00 0.00 75 1010.2
20260505182802 11 349 9.7 29.0 0.00 0.00 0.00 75 1010.1
20260505182306 11 22 11.3 29.0 0.00 0.00 0.00 75 1010.1
20260505182119 11 33 8.0 19.3 0.00 0.00 0.00 75 1010.1
20260505182012 11 33 8.0 19.3 0.00 0.00 0.00 75 1010.1
20260505181304 11 39 8.0 17.7 0.00 0.00 0.00 75 1010.1
20260505180803 12 350 9.7 19.3 0.00 0.00 0.00 75 1010.1
20260505180302 12 13 9.7 22.5 0.00 0.00 0.00 74 1010.1
20260505175802 12 19 8.0 22.5 0.00 0.00 0.00 75 1010.1
20260505175305 12 25 8.0 20.9 0.00 0.00 0.00 75 1010.2
20260505174804 12 5 9.7 20.9 0.00 0.00 0.00 74 1010.2
20260505174302 12 38 9.7 20.9 0.00 0.00 0.00 74 1010.2
20260505173805 12 339 9.7 20.9 0.00 0.00 0.00 74 1010.2
20260505173305 12 324 8.0 20.9 0.00 0.00 0.00 73 1010.2
20260505172803 12 350 8.0 19.3 0.00 0.00 0.00 73 1010.2
20260505172305 12 40 9.7 25.7 0.00 0.00 0.00 72 1010.1
20260505171802 12 46 9.7 25.7 0.00 0.00 0.00 72 1010.2
20260505171304 12 5 9.7 24.1 0.00 0.00 0.00 73 1010.1
20260505170802 13 12 9.7 24.1 0.00 0.00 0.00 73 1010.2
20260505170304 13 348 9.7 20.9 0.00 0.00 0.00 72 1010.2
20260505165803 13 342 11.3 22.5 0.00 0.00 0.00 72 1010.2
20260505165305 13 355 11.3 22.5 0.00 0.00 0.00 73 1010.2
20260505164803 13 12 11.3 24.1 0.00 0.00 0.00 73 1010.2
20260505164559 13 9 11.3 24.1 0.00 0.00 0.00 73 1010.2
20260505164511 13 9 11.3 24.1 0.00 0.00 0.00 73 1010.2
20260505164105 13 355 11.3 22.5 0.00 0.00 0.00 73 1010.2
20260505164012 13 355 11.3 22.5 0.00 0.00 0.00 73 1010.2
20260505163305 13 343 9.7 20.9 0.00 0.00 0.00 73 1010.3
20260505162805 13 307 11.3 25.7 0.00 0.00 0.00 73 1010.2
20260505162306 13 355 11.3 25.7 0.00 0.00 0.00 73 1010.3
20260505161815 13 11 9.7 24.1 0.00 0.00 0.00 73 1010.3
20260505161305 13 9 9.7 24.1 0.00 0.00 0.00 72 1010.2
20260505160802 13 350 9.7 20.9 0.00 0.00 0.00 73 1010.2
20260505160305 13 24 9.7 22.5 0.00 0.00 0.00 72 1010.2
20260505153304 13 53 11.3 25.7 0.00 0.00 0.00 71 1010.3
20260505152806 13 19 11.3 30.6 0.00 0.00 0.00 71 1010.3
20260505152305 14 319 11.3 30.6 0.00 0.00 0.00 70 1010.3
20260505151804 14 21 12.9 30.6 0.00 0.00 0.00 70 1010.4
20260505151302 13 331 14.5 30.6 0.00 0.00 0.00 69 1010.4
20260505150802 13 341 12.9 27.4 0.00 0.00 0.00 70 1010.4
20260505150605 13 20 14.5 27.4 0.00 0.00 0.00 70 1010.3
20260505150513 13 20 14.5 27.4 0.00 0.00 0.00 70 1010.3
20260505140305 13 355 11.3 29.0 0.00 0.00 0.00 69 1010.6
20260505130305 13 9 11.3 27.4 0.00 0.00 0.00 71 1011.0
20260505124804 14 5 9.7 22.5 0.00 0.00 0.00 69 1011.0
20260505124303 13 312 11.3 25.7 0.00 0.00 0.00 71 1011.0
20260505123803 13 349 11.3 25.7 0.00 0.00 0.00 70 1011.1
20260505123304 14 342 9.7 20.9 0.00 0.00 0.00 70 1011.1
20260505122803 14 318 9.7 20.9 0.00 0.00 0.00 71 1011.0
20260505122305 14 334 11.3 22.5 0.00 0.00 0.00 70 1011.1
20260505121803 14 291 9.7 22.5 0.00 0.00 0.00 70 1011.2
20260505121303 14 338 9.7 24.1 0.00 0.00 0.00 71 1011.2
20260505120801 14 333 8.0 24.1 0.00 0.00 0.00 70 1011.3
20260505120258 14 336 6.4 19.3 0.00 0.00 0.00 71 1011.3
20260505115757 14 28 8.0 19.3 0.00 0.00 0.00 72 1011.3
20260505115258 14 311 8.0 20.9 0.00 0.00 0.00 72 1011.3
20260505114756 13 309 9.7 22.5 0.00 0.00 0.00 71 1011.4
20260505114251 13 299 8.0 22.5 0.00 0.00 0.00 71 1011.4
20260505113750 14 22 6.4 24.1 0.00 0.00 0.00 70 1011.4
20260505113251 14 343 8.0 24.1 0.00 0.00 0.00 72 1011.4
20260505112750 13 19 8.0 17.7 0.00 0.00 0.00 72 1011.4
20260505112545 13 323 6.4 17.7 0.00 0.00 0.00 71 1011.4
20260505112454 13 323 6.4 17.7 0.00 0.00 0.00 71 1011.4
20260505111742 13 31 6.4 24.1 0.00 0.00 0.00 71 1011.5
20260505111243 13 36 8.0 24.1 0.00 0.00 0.00 72 1011.5
20260505110741 13 51 8.0 17.7 0.00 0.00 0.00 72 1011.5
20260505110242 13 48 6.4 19.3 0.00 0.00 0.00 74 1011.5
20260505102041 11 11 3.2 11.3 0.00 0.00 0.00 82 1012.0
20260505101941 11 11 3.2 11.3 0.00 0.00 0.00 82 1012.0
20260505101230 11 16 3.2 9.7 0.00 0.00 0.00 82 1012.1
20260505100731 11 9 4.8 14.5 0.00 0.00 0.00 82 1012.0
20260505100232 11 74 6.4 16.1 0.00 0.00 0.00 83 1012.0
20260505095730 11 29 6.4 16.1 0.00 0.00 0.00 83 1012.0
20260505095328 11 24 6.4 14.5 0.00 0.00 0.00 84 1012.0
20260505095305 11 64 4.8 12.9 0.00 0.00 0.00 84 1012.0
20260505094936 11 24 6.4 14.5 0.00 0.00 0.00 84 1012.0
20260505094226 11 36 6.4 14.5 0.00 0.00 0.00 85 1012.0
20260505093723 11 51 6.4 12.9 0.00 0.00 0.00 85 1012.0
20260505093225 11 351 4.8 12.9 0.00 0.00 0.00 85 1012.1
20260505092723 11 48 4.8 14.5 0.00 0.00 0.00 85 1012.1
20260505092516 11 355 6.4 14.5 0.00 0.00 0.00 85 1012.1
20260505092429 11 355 6.4 14.5 0.00 0.00 0.00 85 1012.1